Regional Weather Roundup
Issued by NWS

Home | Current Version | Previous Version | Graphics & Text | Print | Product List | Glossary On
Versions: 1 2 3 4 5 6 7 8 9 10 11 12 13 14 15 16 17 18 19 20 21 22 23 24 25 26 27 28 29 30 31 32 33 34 35 36 37 38 39 40 41 42 43 44 45 46 47 48 49 50
000
ASUS45 KTFX 281310
RWRMT
MONTANA REGIONAL WEATHER ROUNDUP
NATIONAL WEATHER SERVICE GREAT FALLS MT
700 AM MDT THU APR 28 2016

NOTE: "FAIR" INDICATES FEW OR NO CLOUDS BELOW 12000 FEET WITH NO
SIGNIFICANT WEATHER AND/OR OBSTRUCTIONS TO VISIBILITY.

MTZ001>007-043-281400-
WEST OF THE DIVIDE

CITY           SKY/WX    TMP DP  RH WIND       PRES   REMARKS
KALISPELL      CLOUDY    41  33  73 N5        30.02R
MISSOULA       CLOUDY    43  29  57 SE13      30.01S
BUTTE          LGT SNOW  31  29  92 CALM      29.97S FOG
MULLAN PASS    PTCLDY    31  26  82 E6        29.96R WCI  25
ANACONDA         N/A     34  27  75 N12G18    29.99S WCI  25
DEER LODGE       N/A     34  28  80 NW8       30.03R WCI  27
EUREKA           N/A     36  30  80 CALM      30.05R
HAMILTON         N/A     41  28  60 NW8       29.97S
LIBBY            N/A     30  30 100 CALM      30.05S
PLAINS           N/A     38  32  79 CALM      30.01
$$

MTZ008-052>055-281400-
SOUTHWEST MONTANA

CITY           SKY/WX    TMP DP  RH WIND       PRES   REMARKS
BOZEMAN        LGT SNOW  33  31  92 W5        30.00R FOG
DILLON         CLOUDY    33  29  85 NE17      29.94R WCI  22
ENNIS          CLOUDY    32  30  93 N12       29.99R FOG     WCI  23
THREE FORKS      N/A     35  31  86 CALM      30.00R
TWIN BRIDGES     N/A     34  28  79 N15       29.94R WCI  24
$$

MTZ009-010-012-014-046-048-049-054-281400-
EAST SLOPES AND CENTRAL MONTANA

CITY           SKY/WX    TMP DP  RH WIND       PRES   REMARKS
CUT BANK       LGT SNOW  32  32 100 SE7       30.13R FOG     WCI  26
GREAT FALLS    SNOW      32  31  96 NE8       30.08S VSB 1/2 WCI  25
MALMSTROM AFB  LGT SNOW  32  32 100 NE7       30.10R WCI  26
HELENA         CLOUDY    35  32  88 W6        30.04R WCI  30
CHOTEAU          N/A     32  32 100 NE9       30.11R FOG     WCI  24
CONRAD           N/A     32  32 100 N2        30.13S
$$

MTZ011-013-016-021-045-047-050-051-281400-
NORTH CENTRAL MONTANA

CITY           SKY/WX    TMP DP  RH WIND       PRES   REMARKS
HAVRE          CLOUDY    36  35  96 CALM      30.16R
LEWISTOWN      FLURRIES  32  28  85 E6        30.08R WCI  26
N BAR RANCH    MIX PCPN  30  28  93 NE3       30.09S
CHINOOK          N/A     37  37 100 NW3       30.16S
$$

MTZ017>020-022>027-061-062-281400-
NORTHEAST MONTANA

CITY           SKY/WX    TMP DP  RH WIND       PRES   REMARKS
GLASGOW        PTSUNNY   35  32  88 CALM      30.13R
JORDAN           N/A     35  34  96 NW6       30.12R WCI  30
SIDNEY         CLOUDY    37  28  70 N8        30.12S WCI  31
WOLF POINT     CLOUDY    37  29  72 E6        30.14R
PLENTYWOOD       N/A     36  21  55 NE13      30.14R WCI  27
POPLAR           N/A     37  27  65 NE7       30.14R
SCOBEY           N/A     36  17  46 NE1       30.12R
$$

MTZ028>42-056>058-281400-
SOUTHCENTRAL AND SOUTHEAST MONTANA

CITY           SKY/WX    TMP DP  RH WIND       PRES   REMARKS
BAKER          CLOUDY    34  32  92 NW8       30.07R WCI  27
BILLINGS       SNOW      31  31 100 NE8       30.06R VSB 1/2 WCI  23
LIVINGSTON     LGT SNOW  30  27  88 E16       30.01R FOG     WCI  19
MILES CITY     LGT RAIN  36  33  89 N7        30.10R WCI  30
EKALAKA          N/A     31  29  92 N5        30.01R VSB 0
FORSYTH          N/A     34  34 100 N5        30.11R
LAUREL           N/A     31  25  78 CALM      30.04R VSB 0
ROUNDUP          N/A     32  29  89 CALM      29.99S
$$

REGIONAL REPORTS...DAKOTAS

CITY           SKY/WX    TMP DP  RH WIND       PRES   REMARKS
WILLISTON      CLOUDY    37  25  61 N7        30.13R WCI  32
MINOT          CLOUDY    39  23  52 N8        30.12R
DICKINSON      CLOUDY    34  29  82 N7        30.04R WCI  28
BEACH            N/A     34  34 100 NE7       30.09S WCI  28
CROSBY           N/A     32  23  69 CALM      30.19R
TIOGA            N/A     34  23  64 NE7       30.18R WCI  28
WATFORD CITY     N/A     36  27  69 CALM      30.11S
BISMARCK       CLOUDY    38  36  92 E3        30.08S
GRAND FORKS    CLOUDY    41  23  48 NE12      30.11R
FARGO          CLOUDY    44  26  49 NE8       30.05R
BUFFALO SD       N/A     34  32  92 N12       29.97R WCI  25
RAPID CITY     CLOUDY    32  32 100 N13       30.00R FOG     WCI  22
$$

REGIONAL REPORTS...WYOMING/IDAHO/WASHINGTON

CITY           SKY/WX    TMP DP  RH WIND       PRES   REMARKS
GILLETTE       CLOUDY    30  29  96 N7        30.00R WCI  23
SHERIDAN       CLOUDY    32  31  96 CALM      30.03S
BUFFALO WY     CLOUDY    30  27  88 N6        30.00R WCI  24
CODY           CLOUDY    30  27  86 N8        29.98R WCI  23
YELLOWSTONE LA   N/A     28  21  75 VRB5      29.89S
IDAHO FALLS    CLEAR     33  26  75 N6        29.83R WCI  28
SALMON         CLOUDY    43  27  52 NE3       29.91R
BOISE          CLEAR     43  37  79 CALM      29.82S
SPOKANE        MOCLDY    47  41  80 NE7       29.96R
$$

REGIONAL REPORTS...ALBERTA

CITY           SKY/WX    TMP DP  RH WIND       PRES   REMARKS
EDMONTON       CLEAR     39  28  65 S3        30.13S
CALGARY        CLOUDY    36  34  93 S10       30.12S WCI  28
LETHBRIDGE     LGT RAIN  36  36 100 S10       30.15R WCI  28
MEDICINE HAT   CLOUDY    37  36  93 W3        30.19R
$$

REGIONAL REPORTS...SASKATCHEWAN

CITY           SKY/WX    TMP DP  RH WIND       PRES   REMARKS
SWIFT CURRENT  PTCLDY    37  27  65 SE5       30.16R
REGINA         PTSUNNY   39  21  48 E8        30.22R
SASKATOON      PTSUNNY   43  28  56 E7        30.25R
$$



USA.gov is the U.S. government's official web portal to all federal, state and local government web resources and services.